Location: Crni Vrh Observatory
(45.9460°N, 14.0712°E)
Time: 14:35:22
(UTC+01:00)

Envisat - Visible Passes

Search period start: 16 January 2018 00:00
Search period end: 26 January 2018 00:00
Orbit: 764 x 766 km, 98.2° (Epoch: 16 January)

Date Brightness Start Highest point End Pass type
(mag) Time Alt. Az. Time Alt. Az. Time Alt. Az.
16 Jan 4.2 18:57:10 27° NNE 18:57:10 27° NNE 18:59:45 10° N visible
16 Jan 5.5 20:37:22 15° NW 20:37:22 15° NW 20:38:31 10° NW visible
17 Jan 6.3 06:59:16 10° ENE 07:00:30 11° E 07:01:45 10° E visible
17 Jan 4.4 18:19:48 19° NE 18:19:48 19° NE 18:22:20 10° NNE visible
17 Jan 4.7 19:59:59 26° NNW 19:59:59 26° NNW 20:02:16 10° NNW visible
18 Jan 4.8 17:42:25 11° NE 17:42:26 11° NE 17:43:28 10° NE visible
18 Jan 3.9 19:22:37 35° N 19:22:37 35° N 19:25:34 10° N visible
18 Jan 5.9 21:02:48 11° NW 21:02:48 11° NW 21:03:15 10° NW visible
19 Jan 3.9 18:45:13 29° NE 18:45:13 29° NE 18:48:29 10° N visible
19 Jan 5.1 20:25:25 22° NW 20:25:25 22° NW 20:27:35 10° NNW visible
20 Jan 4.4 18:07:49 17° ENE 18:07:49 17° ENE 18:10:52 10° NNE visible
20 Jan 4.0 19:48:01 38° NNW 19:48:01 38° NNW 19:51:11 10° NNW visible
21 Jan 3.5 19:10:37 43° NNE 19:10:37 43° NNE 19:14:22 10° N visible
21 Jan 5.5 20:50:47 17° WNW 20:50:47 17° WNW 20:52:34 10° NW visible
22 Jan 3.9 18:33:12 27° ENE 18:33:12 27° ENE 18:37:10 10° N visible
22 Jan 4.5 20:13:23 33° NW 20:13:23 33° NW 20:16:36 10° NNW visible
23 Jan 4.6 17:55:47 14° ENE 17:56:40 14° ENE 17:59:15 10° NNE visible
23 Jan 3.3 19:35:58 59° NNW 19:35:58 59° NNW 19:40:04 10° NNW visible
23 Jan 6.0 21:16:09 11° WNW 21:16:09 11° WNW 21:16:38 10° WNW visible
24 Jan 3.3 18:58:32 43° ENE 18:58:32 43° ENE 19:03:08 10° N visible
24 Jan 5.1 20:38:43 24° WNW 20:38:43 24° WNW 20:41:45 10° NW visible
25 Jan 6.2 07:01:58 10° ENE 07:03:54 12° E 07:05:49 10° ESE visible
25 Jan 4.1 18:21:06 21° ENE 18:21:55 22° ENE 18:25:47 10° NNE visible
25 Jan 3.7 20:01:17 50° WNW 20:01:17 50° WNW 20:05:35 10° NNW visible
